Athol, MA

2:43 PM EST on February 20, 2017 (GMT -0500)
Orange Municipal

Weather History for KORE - October, 2012

Change the Weather History Date:

Friday, October 26, 2012

  Actual Average Record
Temperature  
Mean Temperature 54 °F -  
Max Temperature 63 °F 53 °F 73 °F (2010)
Min Temperature 46 °F 31 °F 23 °F (1997)
Degree Days  
Heating Degree Days 11    
Growing Degree Days 4 (Base 50)    
Moisture  
Dew Point 49 °F    
Average Humidity 90    
Maximum Humidity 100    
Minimum Humidity 70    
Precipitation  
Precipitation 0.00 in - - ()
Sea Level Pressure  
Sea Level Pressure 30.18 in    
Wind  
Wind Speed 2 mph (South)    
Max Wind Speed 12 mph    
Max Gust Speed -    
Visibility 6 miles    
Events Fog    
Averages and records for this station are not official NWS values.
T = Trace of Precipitation, MM = Missing Value Source: NWS Daily Summary

Daily Weather History Graph

Daily Weather History Graph

Search for Another Location

Airport or City:

Trip Planner

Search our weather history database for the weather conditions in past years. The results will help you decide how hot, cold, wet, or windy it might be!

Date:

Astronomy

Oct. 26, 2012 Rise Set
Actual Time 7:15 AM EDT 5:49 PM EDT
Civil Twilight 6:47 AM EDT 6:18 PM EDT
Nautical Twilight 6:13 AM EDT 6:51 PM EDT
Astronomical Twilight 5:41 AM EDT 7:24 PM EDT
Moon 4:06 PM EDT (10/26) 4:06 AM EDT (10/26)
Length of Visible Light 11h 31m
Length of Day
10h 33m
Waxing Gibbous, 91% of the Moon is Illuminated
Oct 26
Waxing Gibbous
Oct 29
Full
Nov 6
Last Quarter
Nov 13
New
Nov 20
First Quarter

Hourly Weather History & Observations

Time (EDT) Temp. Dew Point Humidity Pressure Visibility Wind Dir Wind Speed Gust Speed Precip Events Conditions
2:52 AM 46.9 °F 44.1 °F 90% 30.26 in 10.0 mi Calm Calm - N/A   Overcast
3:52 AM 48.0 °F 45.0 °F 89% 30.25 in 10.0 mi Calm Calm - N/A   Overcast
4:52 AM 48.0 °F 44.1 °F 86% 30.25 in 10.0 mi Calm Calm - N/A   Overcast
5:52 AM 48.9 °F 45.0 °F 86% 30.23 in 10.0 mi Calm Calm - N/A   Overcast
6:52 AM 48.9 °F 46.0 °F 90% 30.22 in 10.0 mi Calm Calm - N/A   Overcast
7:35 AM 48.2 °F 46.4 °F 93% 30.21 in 10.0 mi Calm Calm - N/A   Overcast
7:52 AM 50.0 °F 46.9 °F 89% 30.23 in 10.0 mi Calm Calm - N/A   Overcast
8:52 AM 51.1 °F 46.9 °F 86% 30.23 in 10.0 mi Calm Calm - N/A   Overcast
9:52 AM 57.0 °F 51.1 °F 81% 30.24 in 10.0 mi Calm Calm - N/A   Overcast
10:52 AM 57.9 °F 51.1 °F 78% 30.23 in 10.0 mi SW 6.9 mph - N/A   Overcast
11:33 AM 59.0 °F 51.8 °F 77% 30.22 in 10.0 mi SW 6.9 mph - N/A   Overcast
11:52 AM 59.0 °F 52.0 °F 78% 30.22 in 10.0 mi South 6.9 mph - N/A   Overcast
12:52 PM 60.1 °F 52.0 °F 75% 30.20 in 10.0 mi SSW 8.1 mph - N/A   Overcast
1:52 PM 61.0 °F 52.0 °F 72% 30.19 in 10.0 mi South 8.1 mph - N/A   Overcast
2:52 PM 62.1 °F 52.0 °F 70% 30.17 in 10.0 mi South 11.5 mph - N/A   Scattered Clouds
3:52 PM 61.0 °F 52.0 °F 72% 30.16 in 10.0 mi South 10.4 mph - N/A   Clear
4:52 PM 60.1 °F 53.1 °F 78% 30.15 in 10.0 mi South 4.6 mph - N/A   Partly Cloudy
5:16 PM 60.8 °F 53.6 °F 77% 30.14 in 10.0 mi SSE 3.5 mph - N/A   Mostly Cloudy
5:45 PM 59.0 °F 53.6 °F 82% 30.13 in 10.0 mi SSE 3.5 mph - N/A   Scattered Clouds
5:52 PM 57.9 °F 53.1 °F 84% 30.14 in 10.0 mi SSE 3.5 mph - N/A   Partly Cloudy
6:52 PM 53.1 °F 52.0 °F 96% 30.15 in 10.0 mi Calm Calm - N/A   Clear
7:35 PM 50.0 °F 48.2 °F 94% 30.13 in 1.8 mi Calm Calm - N/A   Clear
7:45 PM 48.2 °F 48.2 °F 100% 30.13 in 1.2 mi Calm Calm - N/A   Partly Cloudy
7:48 PM 48.2 °F 48.2 °F 100% 30.13 in 0.8 mi Calm Calm - N/A   Mist
7:52 PM 48.9 °F 48.9 °F 100% 30.14 in 0.5 mi Calm Calm - N/A Fog Fog
8:01 PM 48.2 °F 48.2 °F 100% 30.14 in 1.2 mi Calm Calm - N/A   Partly Cloudy
8:03 PM 48.2 °F 48.2 °F 100% 30.14 in 2.0 mi Calm Calm - N/A   Partly Cloudy
8:18 PM 48.2 °F 48.2 °F 100% 30.14 in 3.0 mi Calm Calm - N/A   Scattered Clouds
8:20 PM 48.2 °F 48.2 °F 100% 30.14 in 2.5 mi Calm Calm - N/A   Mostly Cloudy
8:28 PM 48.2 °F 48.2 °F 100% 30.14 in 1.2 mi Calm Calm - N/A   Mostly Cloudy
8:32 PM 48.2 °F 48.2 °F 100% 30.14 in 0.8 mi Calm Calm - N/A   Mist
8:52 PM 48.0 °F 46.9 °F 96% 30.15 in 0.2 mi Calm Calm - N/A Fog Fog
9:52 PM 46.0 °F 45.0 °F 96% 30.16 in 0.8 mi Calm Calm - N/A   Mist
10:31 PM 46.4 °F 46.4 °F 100% 30.15 in 1.0 mi Calm Calm - N/A   Mist
10:38 PM 46.4 °F 46.4 °F 100% 30.15 in 0.5 mi Calm Calm - N/A Fog Fog
10:52 PM 46.0 °F 46.0 °F 100% 30.16 in 0.2 mi Calm Calm - N/A Fog Fog
11:52 PM 46.0 °F 46.0 °F 100% 30.15 in 0.2 mi Calm Calm - N/A Fog Fog